Miscellaneous Local Product
Issued by NWS North Platte, NE

Home | Current Version | Previous Version | Text Only | Print | Product List | Glossary On
Versions: 1 2 3 4 5 6 7 8 9 10 11 12 13 14 15 16 17 18 19 20 21 22 23 24 25 26 27 28 29 30 31 32 33 34 35 36 37 38 39 40 41 42 43 44 45 46 47 48 49 50
000
AXUS43 KLBF 241410
MISLBF


WESTERN AND NORTH CENTRAL NEBRASKA HOURLY WEATHER ROUNDUP
NATIONAL WEATHER SERVICE NORTH PLATTE NE
900 AM CDT WED AUG 24 2016

NOTE: "FAIR" INDICATES FEW OR NO CLOUDS BELOW 12,000 FEET WITH NO
SIGNIFICANT WEATHER AND/OR OBSTRUCTIONS TO VISIBILITY.

NOTE: STATIONS NOT REPORTING VARIABLES SUCH AS SKY/WEATHER OR
PRESSURE ARE PROVIDED BY RAWS AND APRS NETWORKS AND ARE NOT UNDER
NATIONAL WEATHER SERVICE QUALITY CONTROL.

...OBSERVATIONS IN AND NEAR THE EASTERN PANHANDLE OF NEBRASKA...

CITY           SKY/WX    TMP DP  RH WIND       PRES   REMARKS
PINE RIDGE     CLOUDY    50  45  83 CALM      30.20R
CHADRON        CLOUDY    56  39  53 W3        30.20R
ALLIANCE       CLOUDY    53  47  79 W6        30.20R
SIDNEY         CLOUDY    61  44  53 E7        30.22R
CRESCENT LAKE    N/A     56  45  66 W3          N/A
$$

...OBSERVATIONS IN NORTHERN NEBRASKA AND FAR SOUTHERN SOUTH DAKOTA...

CITY           SKY/WX    TMP DP  RH WIND       PRES   REMARKS
WINNER         FAIR      60  45  57 NW10      30.09R
VALENTINE      CLOUDY    58  42  55 NW5       30.12R
THEDFORD       CLOUDY    60  45  58 W6        30.12R
AINSWORTH      CLOUDY    56  47  71 NW8       30.10R
O`NEILL        CLOUDY    60  49  67 CALM      30.06R
ORD            CLOUDY    58  51  78 CALM      30.05R
BROKEN BOW     CLOUDY    58  51  78 CALM      30.09R
VALENTINE NWR    N/A     56  46  69 CALM        N/A
BUTTE            N/A     62  49  63 W8          N/A
HALSEY           N/A     56  42  58 W3          N/A
EWING            N/A     59  53  79 CALM        N/A
$$

...OBSERVATIONS IN SOUTHWEST NEBRASKA AND FAR NORTHEAST COLORADO...

CITY           SKY/WX    TMP DP  RH WIND       PRES   REMARKS
WRAY           FAIR      66  39  37 E7        30.15R
HOLYOKE        FAIR      63  43  48 N9        30.15F
IMPERIAL       CLOUDY    62  45  53 N8        30.13S
OGALLALA       CLOUDY    63  42  45 N3        30.17R
NORTH PLATTE   CLOUDY    60  51  72 N3        30.11R
MCCOOK         CLOUDY    61  50  67 NE3       30.07F
LEXINGTON      CLOUDY    59  53  80 NW6       30.08R
STAPLETON        N/A     57  46  66 CALM        N/A
GOTHENBURG       N/A     58  47  66 W3          N/A
CALLAWAY         N/A     56  51  82 N5          N/A
$$

...OBSERVATIONS IN CENTRAL LINCOLN COUNTY AREA...

CITY           SKY/WX    TMP DP  RH WIND       PRES   REMARKS
N.P. AIRPORT   CLOUDY    60  51  72 N3        30.11R
N.P. DOWNTOWN    N/A     62  46  55 CALM        N/A
N.P. SOUTHEAST   N/A     61  46  57 CALM        N/A
N.P. HILLCREST   N/A     61  45  56 E6          N/A
$$

...SOME OBSERVATIONS FROM AROUND THE REGION...

CITY           SKY/WX    TMP DP  RH WIND       PRES   REMARKS
DENVER         CLOUDY    67  42  40 S8        30.20R
LARAMIE        CLOUDY    52  32  46 NW5       30.30R
CHEYENNE       CLOUDY    56  44  64 SE9       30.25S
SCOTTSBLUFF    CLOUDY    59  45  59 E8        30.20R
RAPID CITY     CLOUDY    60  45  57 N14       30.19R
BISMARCK       SUNNY     60  50  69 W16       30.01R
PIERRE         CLOUDY    64  50  60 NW9       30.08R
SIOUX FALLS    CLOUDY    67  57  70 W3        29.98R
OMAHA          CLOUDY    73  65  75 NW10      29.96R
GRAND ISLAND   MOSUNNY   68  55  63 N10       30.05R
KANSAS CITY    PTSUNNY   74  68  81 S14       29.97R
WICHITA        LGT RAIN  75  68  78 S6        30.00R
OKLAHOMA CITY  MOSUNNY   80  69  69 S21G28    30.05R
DALLAS         PTSUNNY   79  71  76 S16       30.10R
AMARILLO       CLOUDY    69  59  70 SW10      30.13S
DODGE CITY     CLOUDY    74  61  63 W14       29.99R
HAYS           PTSUNNY   72  54  53 N10       30.00R
GOODLAND       CLOUDY    64  47  53 N7        30.12R
$$




USA.gov is the U.S. government's official web portal to all federal, state and local government web resources and services.